Time,TemperatureF,DewpointF,PressureIn,WindDirection,WindDirectionDegrees,WindSpeedMPH,WindSpeedGustMPH,Humidity,HourlyPrecipIn,Conditions,Clouds,dailyrainin,SoftwareType,DateUTC
2013-10-26 00:04:00,56.8,29.5,30.02,ESE,112,0.0,0.0,35,0.00,,,0.00,WeatherCatV1.21B27,2013-10-26 07:04:00,
2013-10-26 00:09:00,56.7,29.4,30.02,SE,126,0.0,0.0,35,0.00,,,0.00,WeatherCatV1.21B27,2013-10-26 07:09:00,
2013-10-26 00:14:00,57.4,30.7,30.02,SE,126,0.0,0.0,36,0.00,,,0.00,WeatherCatV1.21B27,2013-10-26 07:14:00,
2013-10-26 00:19:00,57.7,34.8,30.02,SE,126,0.0,0.0,42,0.00,,,0.00,WeatherCatV1.21B27,2013-10-26 07:19:00,
2013-10-26 00:24:00,57.2,33.7,30.02,SE,126,0.0,0.0,41,0.00,,,0.00,WeatherCatV1.21B27,2013-10-26 07:24:00,
2013-10-26 00:29:00,56.6,34.4,30.02,SE,126,0.0,0.0,43,0.00,,,0.00,WeatherCatV1.21B27,2013-10-26 07:29:00,
2013-10-26 00:34:00,56.3,33.5,30.03,SE,126,0.0,0.0,42,0.00,,,0.00,WeatherCatV1.21B27,2013-10-26 07:34:00,
2013-10-26 00:39:00,56.2,34.6,30.03,SE,126,0.0,0.0,44,0.00,,,0.00,WeatherCatV1.21B27,2013-10-26 07:39:00,
2013-10-26 00:44:00,56.5,36.5,30.03,SE,126,0.0,0.0,47,0.00,,,0.00,WeatherCatV1.21B27,2013-10-26 07:44:00,
2013-10-26 00:49:00,57.0,35.3,30.02,SE,126,0.0,0.0,44,0.00,,,0.00,WeatherCatV1.21B27,2013-10-26 07:49:00,
2013-10-26 00:54:00,57.3,36.7,30.03,SE,126,0.0,0.0,46,0.00,,,0.00,WeatherCatV1.21B27,2013-10-26 07:54:00,
2013-10-26 00:59:00,57.0,35.3,30.03,SE,126,0.0,0.0,44,0.00,,,0.00,WeatherCatV1.21B27,2013-10-26 07:59:00,
2013-10-26 01:04:00,57.2,33.7,30.03,SE,126,0.0,0.0,41,0.00,,,0.00,WeatherCatV1.21B27,2013-10-26 08:04:00,
2013-10-26 01:09:00,57.4,32.7,30.02,SE,128,0.0,0.0,39,0.00,,,0.00,WeatherCatV1.21B27,2013-10-26 08:09:00,
2013-10-26 01:14:00,57.0,36.4,30.02,SE,142,0.0,0.0,46,0.00,,,0.00,WeatherCatV1.21B27,2013-10-26 08:14:00,
2013-10-26 01:19:00,56.5,37.6,30.03,SE,141,0.0,0.0,49,0.00,,,0.00,WeatherCatV1.21B27,2013-10-26 08:19:00,
2013-10-26 01:24:00,56.4,37.5,30.03,SE,138,0.0,0.0,49,0.00,,,0.00,WeatherCatV1.21B27,2013-10-26 08:24:00,
2013-10-26 01:29:00,56.7,37.8,30.03,SE,138,0.0,0.0,49,0.00,,,0.00,WeatherCatV1.21B27,2013-10-26 08:29:00,
2013-10-26 01:34:00,56.6,36.1,30.02,SE,138,0.0,0.0,46,0.00,,,0.00,WeatherCatV1.21B27,2013-10-26 08:34:00,
2013-10-26 01:39:00,56.3,35.8,30.03,SE,138,0.0,0.0,46,0.00,,,0.00,WeatherCatV1.21B27,2013-10-26 08:39:00,
2013-10-26 01:44:00,56.2,34.0,30.03,SE,138,0.0,0.0,43,0.00,,,0.00,WeatherCatV1.21B27,2013-10-26 08:44:00,
2013-10-26 01:49:00,56.2,33.4,30.03,SE,138,0.0,0.0,42,0.00,,,0.00,WeatherCatV1.21B27,2013-10-26 08:49:00,
2013-10-26 01:54:00,56.2,32.2,30.03,SE,138,0.0,0.0,40,0.00,,,0.00,WeatherCatV1.21B27,2013-10-26 08:54:00,
2013-10-26 01:59:00,56.2,34.6,30.03,SE,139,0.0,0.0,44,0.00,,,0.00,WeatherCatV1.21B27,2013-10-26 08:59:00,
2013-10-26 02:04:00,56.1,33.9,30.04,SE,138,0.0,0.0,43,0.00,,,0.00,WeatherCatV1.21B27,2013-10-26 09:04:00,
2013-10-26 02:09:00,56.6,31.9,30.04,SE,138,0.0,0.0,39,0.00,,,0.00,WeatherCatV1.21B27,2013-10-26 09:09:00,
2013-10-26 02:14:00,57.5,32.7,30.04,SE,138,0.0,0.0,39,0.00,,,0.00,WeatherCatV1.21B27,2013-10-26 09:14:00,
2013-10-26 02:19:00,57.5,32.7,30.04,SE,138,0.0,0.0,39,0.00,,,0.00,WeatherCatV1.21B27,2013-10-26 09:19:00,
2013-10-26 02:24:00,56.8,34.0,30.04,SE,138,0.0,0.0,42,0.00,,,0.00,WeatherCatV1.21B27,2013-10-26 09:24:00,
2013-10-26 02:29:00,56.1,32.1,30.04,SE,138,0.0,0.0,40,0.00,,,0.00,WeatherCatV1.21B27,2013-10-26 09:29:00,
2013-10-26 02:34:00,56.2,30.3,30.04,SE,138,0.0,0.0,37,0.00,,,0.00,WeatherCatV1.21B27,2013-10-26 09:34:00,
2013-10-26 02:39:00,56.9,31.6,30.04,SE,138,0.0,0.0,38,0.00,,,0.00,WeatherCatV1.21B27,2013-10-26 09:39:00,
2013-10-26 02:44:00,56.7,33.9,30.04,SE,138,0.0,0.0,42,0.00,,,0.00,WeatherCatV1.21B27,2013-10-26 09:44:00,
2013-10-26 02:49:00,56.2,33.4,30.04,SE,138,0.0,0.0,42,0.00,,,0.00,WeatherCatV1.21B27,2013-10-26 09:49:00,
2013-10-26 02:54:00,55.7,33.0,30.04,SE,138,0.0,0.0,42,0.00,,,0.00,WeatherCatV1.21B27,2013-10-26 09:54:00,
2013-10-26 02:59:00,55.6,34.0,30.04,SE,138,0.0,0.0,44,0.00,,,0.00,WeatherCatV1.21B27,2013-10-26 09:59:00,
2013-10-26 03:04:00,55.5,32.8,30.04,SE,138,0.0,0.0,42,0.00,,,0.00,WeatherCatV1.21B27,2013-10-26 10:04:00,
2013-10-26 03:09:00,55.6,35.2,30.04,SE,142,0.0,0.0,46,0.00,,,0.00,WeatherCatV1.21B27,2013-10-26 10:09:00,
2013-10-26 03:14:00,55.6,37.3,30.04,SE,144,0.0,0.0,50,0.00,,,0.00,WeatherCatV1.21B27,2013-10-26 10:14:00,
2013-10-26 03:19:00,55.3,38.0,30.04,SE,142,0.0,0.0,52,0.00,,,0.00,WeatherCatV1.21B27,2013-10-26 10:19:00,
2013-10-26 03:24:00,55.0,37.7,30.04,SE,142,2.0,2.0,52,0.00,,,0.00,WeatherCatV1.21B27,2013-10-26 10:24:00,
2013-10-26 03:29:00,55.1,37.8,30.04,SE,143,0.0,1.0,52,0.00,,,0.00,WeatherCatV1.21B27,2013-10-26 10:29:00,
2013-10-26 03:34:00,55.5,37.7,30.03,SE,142,0.0,0.0,51,0.00,,,0.00,WeatherCatV1.21B27,2013-10-26 10:34:00,
2013-10-26 03:39:00,55.2,35.9,30.03,SE,142,0.0,0.0,48,0.00,,,0.00,WeatherCatV1.21B27,2013-10-26 10:39:00,
2013-10-26 03:44:00,55.2,36.4,30.03,SE,142,0.0,0.0,49,0.00,,,0.00,WeatherCatV1.21B27,2013-10-26 10:44:00,
2013-10-26 03:49:00,55.3,36.0,30.03,SE,142,0.0,0.0,48,0.00,,,0.00,WeatherCatV1.21B27,2013-10-26 10:49:00,
2013-10-26 03:54:00,54.9,35.6,30.03,SE,143,0.0,0.0,48,0.00,,,0.00,WeatherCatV1.21B27,2013-10-26 10:54:00,
2013-10-26 03:59:00,54.9,36.1,30.03,SE,142,0.0,0.0,49,0.00,,,0.00,WeatherCatV1.21B27,2013-10-26 10:59:00,
2013-10-26 04:04:00,55.0,35.7,30.02,SE,142,0.0,0.0,48,0.00,,,0.00,WeatherCatV1.21B27,2013-10-26 11:04:00,
2013-10-26 04:09:00,55.0,35.7,30.02,SE,143,0.0,0.0,48,0.00,,,0.00,WeatherCatV1.21B27,2013-10-26 11:09:00,
2013-10-26 04:14:00,55.1,36.3,30.02,SE,142,0.0,0.0,49,0.00,,,0.00,WeatherCatV1.21B27,2013-10-26 11:14:00,
2013-10-26 04:19:00,55.3,37.0,30.02,SE,142,0.0,0.0,50,0.00,,,0.00,WeatherCatV1.21B27,2013-10-26 11:19:00,
2013-10-26 04:24:00,55.4,37.6,30.02,SE,142,0.0,0.0,51,0.00,,,0.00,WeatherCatV1.21B27,2013-10-26 11:24:00,
2013-10-26 04:29:00,55.7,37.8,30.02,SE,142,0.0,0.0,51,0.00,,,0.00,WeatherCatV1.21B27,2013-10-26 11:29:00,
2013-10-26 04:34:00,56.0,38.1,30.02,SE,142,0.0,0.0,51,0.00,,,0.00,WeatherCatV1.21B27,2013-10-26 11:34:00,
2013-10-26 04:39:00,56.1,35.6,30.02,SE,143,0.0,0.0,46,0.00,,,0.00,WeatherCatV1.21B27,2013-10-26 11:39:00,
2013-10-26 04:44:00,56.0,36.6,30.02,SE,143,0.0,0.0,48,0.00,,,0.00,WeatherCatV1.21B27,2013-10-26 11:44:00,
2013-10-26 04:49:00,55.5,35.6,30.02,SE,142,0.0,0.0,47,0.00,,,0.00,WeatherCatV1.21B27,2013-10-26 11:49:00,
2013-10-26 04:54:00,55.9,37.0,30.02,SE,142,0.0,0.0,49,0.00,,,0.00,WeatherCatV1.21B27,2013-10-26 11:54:00,
2013-10-26 04:59:00,56.0,36.6,30.02,SE,142,0.0,0.0,48,0.00,,,0.00,WeatherCatV1.21B27,2013-10-26 11:59:00,
2013-10-26 05:04:00,55.4,36.6,30.03,SE,142,0.0,0.0,49,0.00,,,0.00,WeatherCatV1.21B27,2013-10-26 12:04:00,
2013-10-26 05:09:00,54.8,36.0,30.03,SE,142,0.0,0.0,49,0.00,,,0.00,WeatherCatV1.21B27,2013-10-26 12:09:00,
2013-10-26 05:14:00,54.6,35.8,30.03,SE,128,0.0,0.0,49,0.00,,,0.00,WeatherCatV1.21B27,2013-10-26 12:14:00,
2013-10-26 05:19:00,55.0,36.2,30.03,SE,128,1.0,2.0,49,0.00,,,0.00,WeatherCatV1.21B27,2013-10-26 12:19:00,
2013-10-26 05:24:00,55.2,36.4,30.03,SE,128,1.0,2.0,49,0.00,,,0.00,WeatherCatV1.21B27,2013-10-26 12:24:00,
2013-10-26 05:29:00,55.3,36.5,30.03,SE,128,0.0,0.0,49,0.00,,,0.00,WeatherCatV1.21B27,2013-10-26 12:29:00,
2013-10-26 05:34:00,54.9,36.1,30.03,SE,128,0.0,0.0,49,0.00,,,0.00,WeatherCatV1.21B27,2013-10-26 12:34:00,
2013-10-26 05:39:00,55.1,36.3,30.03,SE,128,0.0,0.0,49,0.00,,,0.00,WeatherCatV1.21B27,2013-10-26 12:39:00,
2013-10-26 05:44:00,55.5,36.1,30.03,SE,128,0.0,0.0,48,0.00,,,0.00,WeatherCatV1.21B27,2013-10-26 12:44:00,
2013-10-26 05:49:00,55.7,36.3,30.03,SE,128,0.0,0.0,48,0.00,,,0.00,WeatherCatV1.21B27,2013-10-26 12:49:00,
2013-10-26 05:54:00,55.8,36.4,30.03,SE,128,0.0,0.0,48,0.00,,,0.00,WeatherCatV1.21B27,2013-10-26 12:54:00,
2013-10-26 05:59:00,55.9,36.5,30.03,SE,128,0.0,0.0,48,0.00,,,0.00,WeatherCatV1.21B27,2013-10-26 12:59:00,
2013-10-26 06:04:00,56.3,35.8,30.03,SE,128,0.0,0.0,46,0.00,,,0.00,WeatherCatV1.21B27,2013-10-26 13:04:00,
2013-10-26 06:09:00,57.0,37.0,30.03,SE,128,0.0,0.0,47,0.00,,,0.00,WeatherCatV1.21B27,2013-10-26 13:09:00,
2013-10-26 06:14:00,57.1,34.8,30.03,SE,128,0.0,0.0,43,0.00,,,0.00,WeatherCatV1.21B27,2013-10-26 13:14:00,
2013-10-26 06:19:00,57.6,35.3,30.03,SE,128,0.0,0.0,43,0.00,,,0.00,WeatherCatV1.21B27,2013-10-26 13:19:00,
2013-10-26 06:24:00,58.2,32.0,30.03,SE,128,0.0,0.0,37,0.00,,,0.00,WeatherCatV1.21B27,2013-10-26 13:24:00,
2013-10-26 06:29:00,58.7,33.8,30.03,SE,128,0.0,0.0,39,0.00,,,0.00,WeatherCatV1.21B27,2013-10-26 13:29:00,
2013-10-26 06:34:00,58.4,34.2,30.03,SE,128,0.0,0.0,40,0.00,,,0.00,WeatherCatV1.21B27,2013-10-26 13:34:00,
2013-10-26 06:39:00,58.2,31.4,30.03,SE,128,0.0,0.0,36,0.00,,,0.00,WeatherCatV1.21B27,2013-10-26 13:39:00,
2013-10-26 06:44:00,58.0,31.2,30.03,SE,128,0.0,0.0,36,0.00,,,0.00,WeatherCatV1.21B27,2013-10-26 13:44:00,
2013-10-26 06:49:00,57.4,31.3,30.03,SE,128,0.0,0.0,37,0.00,,,0.00,WeatherCatV1.21B27,2013-10-26 13:49:00,
2013-10-26 06:54:00,57.3,31.9,30.03,SE,128,0.0,0.0,38,0.00,,,0.00,WeatherCatV1.21B27,2013-10-26 13:54:00,
2013-10-26 06:59:00,57.8,34.9,30.03,SE,140,0.0,0.0,42,0.00,,,0.00,WeatherCatV1.21B27,2013-10-26 13:59:00,
2013-10-26 07:04:00,57.8,35.5,30.03,SE,140,0.0,0.0,43,0.00,,,0.00,WeatherCatV1.21B27,2013-10-26 14:04:00,
2013-10-26 07:09:00,57.3,35.0,30.04,SE,140,0.0,0.0,43,0.00,,,0.00,WeatherCatV1.21B27,2013-10-26 14:09:00,
2013-10-26 07:14:00,56.9,36.9,30.04,SE,140,0.0,0.0,47,0.00,,,0.00,WeatherCatV1.21B27,2013-10-26 14:14:00,
2013-10-26 07:19:00,56.3,37.4,30.04,SE,140,0.0,0.0,49,0.00,,,0.00,WeatherCatV1.21B27,2013-10-26 14:19:00,
2013-10-26 07:24:00,56.0,37.1,30.04,SSE,150,0.0,0.0,49,0.00,,,0.00,WeatherCatV1.21B27,2013-10-26 14:24:00,
2013-10-26 07:29:00,55.8,37.4,30.04,SSE,148,0.0,0.0,50,0.00,,,0.00,WeatherCatV1.21B27,2013-10-26 14:29:00,
2013-10-26 07:34:00,55.7,37.3,30.04,SSE,150,0.0,0.0,50,0.00,,,0.00,WeatherCatV1.21B27,2013-10-26 14:34:00,
2013-10-26 07:39:00,56.0,37.6,30.04,SE,142,0.0,0.0,50,0.00,,,0.00,WeatherCatV1.21B27,2013-10-26 14:39:00,
2013-10-26 07:44:00,56.8,37.3,30.05,SE,140,0.0,0.0,48,0.00,,,0.00,WeatherCatV1.21B27,2013-10-26 14:44:00,
2013-10-26 07:49:00,57.3,37.2,30.05,SE,140,0.0,0.0,47,0.00,,,0.00,WeatherCatV1.21B27,2013-10-26 14:49:00,
2013-10-26 07:54:00,57.5,36.9,30.05,SE,140,0.0,0.0,46,0.00,,,0.00,WeatherCatV1.21B27,2013-10-26 14:54:00,
2013-10-26 07:59:00,57.2,36.0,30.05,SE,140,0.0,0.0,45,0.00,,,0.00,WeatherCatV1.21B27,2013-10-26 14:59:00,
2013-10-26 08:04:00,57.0,37.0,30.05,SE,140,0.0,0.0,47,0.00,,,0.00,WeatherCatV1.21B27,2013-10-26 15:04:00,
2013-10-26 08:09:00,57.0,37.5,30.05,SE,140,0.0,0.0,48,0.00,,,0.00,WeatherCatV1.21B27,2013-10-26 15:09:00,
2013-10-26 08:14:00,57.2,36.6,30.05,SE,140,0.0,0.0,46,0.00,,,0.00,WeatherCatV1.21B27,2013-10-26 15:14:00,
2013-10-26 08:19:00,57.1,36.5,30.05,SE,140,0.0,0.0,46,0.00,,,0.00,WeatherCatV1.21B27,2013-10-26 15:19:00,
2013-10-26 08:24:00,57.2,36.6,30.05,SE,140,0.0,0.0,46,0.00,,,0.00,WeatherCatV1.21B27,2013-10-26 15:24:00,
2013-10-26 08:29:00,57.6,37.5,30.05,SE,140,0.0,0.0,47,0.00,,,0.00,WeatherCatV1.21B27,2013-10-26 15:29:00,
2013-10-26 08:34:00,58.1,37.4,30.05,SE,140,0.0,0.0,46,0.00,,,0.00,WeatherCatV1.21B27,2013-10-26 15:34:00,
2013-10-26 08:39:00,58.5,37.8,30.05,SE,140,0.0,0.0,46,0.00,,,0.00,WeatherCatV1.21B27,2013-10-26 15:39:00,
2013-10-26 08:44:00,59.2,38.4,30.05,SE,140,0.0,0.0,46,0.00,,,0.00,WeatherCatV1.21B27,2013-10-26 15:44:00,
2013-10-26 08:49:00,59.7,38.3,30.05,SE,140,0.0,0.0,45,0.00,,,0.00,WeatherCatV1.21B27,2013-10-26 15:49:00,
2013-10-26 08:54:00,60.0,38.0,30.06,SE,140,0.0,0.0,44,0.00,,,0.00,WeatherCatV1.21B27,2013-10-26 15:54:00,
2013-10-26 08:59:00,60.4,39.0,30.06,SE,140,0.0,0.0,45,0.00,,,0.00,WeatherCatV1.21B27,2013-10-26 15:59:00,
2013-10-26 09:04:00,60.9,38.8,30.05,SE,138,0.0,0.0,44,0.00,,,0.00,WeatherCatV1.21B27,2013-10-26 16:04:00,
2013-10-26 09:09:00,61.4,38.7,30.05,SE,130,0.0,0.0,43,0.00,,,0.00,WeatherCatV1.21B27,2013-10-26 16:09:00,
2013-10-26 09:14:00,62.0,38.6,30.05,SE,130,0.0,0.0,42,0.00,,,0.00,WeatherCatV1.21B27,2013-10-26 16:14:00,
2013-10-26 09:19:00,63.5,38.7,30.05,SE,130,0.0,1.0,40,0.00,,,0.00,WeatherCatV1.21B27,2013-10-26 16:19:00,
2013-10-26 09:24:00,64.1,39.3,30.05,SE,130,0.0,1.0,40,0.00,,,0.00,WeatherCatV1.21B27,2013-10-26 16:24:00,
2013-10-26 09:29:00,64.3,39.5,30.05,SE,131,0.0,1.0,40,0.00,,,0.00,WeatherCatV1.21B27,2013-10-26 16:29:00,
2013-10-26 09:34:00,64.5,38.3,30.05,SE,130,0.0,0.0,38,0.00,,,0.00,WeatherCatV1.21B27,2013-10-26 16:34:00,
2013-10-26 09:39:00,65.1,40.8,30.05,SE,130,1.0,1.0,41,0.00,,,0.00,WeatherCatV1.21B27,2013-10-26 16:39:00,
2013-10-26 09:44:00,66.2,38.5,30.05,SE,130,0.0,1.0,36,0.00,,,0.00,WeatherCatV1.21B27,2013-10-26 16:44:00,
2013-10-26 09:49:00,66.6,40.2,30.05,SE,131,0.0,0.0,38,0.00,,,0.00,WeatherCatV1.21B27,2013-10-26 16:49:00,
2013-10-26 09:54:00,66.6,40.2,30.05,SE,127,2.0,2.0,38,0.00,,,0.00,WeatherCatV1.21B27,2013-10-26 16:54:00,
2013-10-26 09:59:00,66.4,40.7,30.05,ESE,118,0.0,1.0,39,0.00,,,0.00,WeatherCatV1.21B27,2013-10-26 16:59:00,
2013-10-26 10:04:00,66.4,41.3,30.04,ESE,105,1.0,2.0,40,0.00,,,0.00,WeatherCatV1.21B27,2013-10-26 17:04:00,
2013-10-26 10:09:00,66.6,40.9,30.04,ESE,103,1.0,2.0,39,0.00,,,0.00,WeatherCatV1.21B27,2013-10-26 17:09:00,
2013-10-26 10:14:00,66.8,36.8,30.04,ESE,104,1.0,2.0,33,0.00,,,0.00,WeatherCatV1.21B27,2013-10-26 17:14:00,
2013-10-26 10:19:00,67.5,37.4,30.04,ESE,103,2.0,2.0,33,0.00,,,0.00,WeatherCatV1.21B27,2013-10-26 17:19:00,
2013-10-26 10:24:00,68.2,37.2,30.04,ESE,103,0.0,0.0,32,0.00,,,0.00,WeatherCatV1.21B27,2013-10-26 17:24:00,
2013-10-26 10:29:00,69.1,40.3,30.04,ESE,113,0.0,1.0,35,0.00,,,0.00,WeatherCatV1.21B27,2013-10-26 17:29:00,
2013-10-26 10:34:00,70.4,41.4,30.03,ESE,116,1.0,2.0,35,0.00,,,0.00,WeatherCatV1.21B27,2013-10-26 17:34:00,
2013-10-26 10:39:00,70.9,41.9,30.03,SE,136,1.0,1.0,35,0.00,,,0.00,WeatherCatV1.21B27,2013-10-26 17:39:00,
2013-10-26 10:44:00,71.5,42.4,30.03,ESE,119,2.0,2.0,35,0.00,,,0.00,WeatherCatV1.21B27,2013-10-26 17:44:00,
2013-10-26 10:49:00,71.6,42.5,30.03,ESE,121,0.0,0.0,35,0.00,,,0.00,WeatherCatV1.21B27,2013-10-26 17:49:00,
2013-10-26 10:54:00,71.8,42.7,30.03,SSW,196,0.0,0.0,35,0.00,,,0.00,WeatherCatV1.21B27,2013-10-26 17:54:00,
2013-10-26 10:59:00,71.7,42.6,30.03,SSW,211,0.0,0.0,35,0.00,,,0.00,WeatherCatV1.21B27,2013-10-26 17:59:00,
2013-10-26 11:04:00,71.8,42.7,30.03,South,187,0.0,0.0,35,0.00,,,0.00,WeatherCatV1.21B27,2013-10-26 18:04:00,
2013-10-26 11:09:00,72.1,43.7,30.03,SSE,161,0.0,0.0,36,0.00,,,0.00,WeatherCatV1.21B27,2013-10-26 18:09:00,
2013-10-26 11:14:00,72.7,43.5,30.03,SSE,163,0.0,0.0,35,0.00,,,0.00,WeatherCatV1.21B27,2013-10-26 18:14:00,
2013-10-26 11:19:00,72.1,42.2,30.03,South,172,3.0,3.0,34,0.00,,,0.00,WeatherCatV1.21B27,2013-10-26 18:19:00,
2013-10-26 11:24:00,70.7,42.4,30.03,South,175,3.0,4.0,36,0.00,,,0.00,WeatherCatV1.21B27,2013-10-26 18:24:00,
2013-10-26 11:29:00,70.0,42.5,30.03,SSE,167,2.0,3.0,37,0.00,,,0.00,WeatherCatV1.21B27,2013-10-26 18:29:00,
2013-10-26 11:34:00,70.1,43.3,30.04,South,175,1.0,2.0,38,0.00,,,0.00,WeatherCatV1.21B27,2013-10-26 18:34:00,
2013-10-26 11:39:00,70.7,43.8,30.03,South,178,0.0,2.0,38,0.00,,,0.00,WeatherCatV1.21B27,2013-10-26 18:39:00,
2013-10-26 11:44:00,71.5,45.2,30.03,South,174,2.0,2.0,39,0.00,,,0.00,WeatherCatV1.21B27,2013-10-26 18:44:00,
2013-10-26 11:49:00,71.5,44.5,30.03,South,172,3.0,3.0,38,0.00,,,0.00,WeatherCatV1.21B27,2013-10-26 18:49:00,
2013-10-26 11:54:00,71.4,45.1,30.03,SSE,168,2.0,3.0,39,0.00,,,0.00,WeatherCatV1.21B27,2013-10-26 18:54:00,
2013-10-26 11:59:00,71.5,44.5,30.03,SSE,161,0.0,4.0,38,0.00,,,0.00,WeatherCatV1.21B27,2013-10-26 18:59:00,
2013-10-26 12:04:00,71.8,45.5,30.03,SSE,160,1.0,5.0,39,0.00,,,0.00,WeatherCatV1.21B27,2013-10-26 19:04:00,
2013-10-26 12:09:00,72.4,44.6,30.02,South,182,2.0,4.0,37,0.00,,,0.00,WeatherCatV1.21B27,2013-10-26 19:09:00,
2013-10-26 12:14:00,72.5,45.4,30.02,South,169,1.0,3.0,38,0.00,,,0.00,WeatherCatV1.21B27,2013-10-26 19:14:00,
2013-10-26 12:19:00,72.7,46.3,30.02,South,169,0.0,1.0,39,0.00,,,0.00,WeatherCatV1.21B27,2013-10-26 19:19:00,
2013-10-26 12:24:00,73.4,46.2,30.02,South,169,0.0,2.0,38,0.00,,,0.00,WeatherCatV1.21B27,2013-10-26 19:24:00,
2013-10-26 12:29:00,73.9,46.7,30.02,SSW,192,0.0,1.0,38,0.00,,,0.00,WeatherCatV1.21B27,2013-10-26 19:29:00,
2013-10-26 12:34:00,74.4,46.4,30.02,South,182,3.0,3.0,37,0.00,,,0.00,WeatherCatV1.21B27,2013-10-26 19:34:00,
2013-10-26 12:39:00,74.2,46.2,30.01,South,175,1.0,2.0,37,0.00,,,0.00,WeatherCatV1.21B27,2013-10-26 19:39:00,
2013-10-26 12:44:00,74.3,45.6,30.01,SSE,159,2.0,4.0,36,0.00,,,0.00,WeatherCatV1.21B27,2013-10-26 19:44:00,
2013-10-26 12:49:00,74.8,46.8,30.01,SSE,149,2.0,4.0,37,0.00,,,0.00,WeatherCatV1.21B27,2013-10-26 19:49:00,
2013-10-26 12:54:00,75.3,46.5,30.01,South,175,0.0,3.0,36,0.00,,,0.00,WeatherCatV1.21B27,2013-10-26 19:54:00,
2013-10-26 12:59:00,75.4,46.6,30.01,South,171,3.0,3.0,36,0.00,,,0.00,WeatherCatV1.21B27,2013-10-26 19:59:00,
2013-10-26 13:04:00,75.3,47.2,30.00,South,169,3.0,5.0,37,0.00,,,0.00,WeatherCatV1.21B27,2013-10-26 20:04:00,
2013-10-26 13:09:00,75.4,48.0,30.00,SSE,168,3.0,5.0,38,0.00,,,0.00,WeatherCatV1.21B27,2013-10-26 20:09:00,
2013-10-26 13:14:00,75.3,48.6,30.00,South,178,4.0,4.0,39,0.00,,,0.00,WeatherCatV1.21B27,2013-10-26 20:14:00,
2013-10-26 13:19:00,75.1,49.1,29.99,South,175,3.0,3.0,40,0.00,,,0.00,WeatherCatV1.21B27,2013-10-26 20:19:00,
2013-10-26 13:24:00,75.1,49.1,29.99,SE,124,2.0,4.0,40,0.00,,,0.00,WeatherCatV1.21B27,2013-10-26 20:24:00,
2013-10-26 13:29:00,75.3,49.3,29.99,SSE,160,0.0,3.0,40,0.00,,,0.00,WeatherCatV1.21B27,2013-10-26 20:29:00,
2013-10-26 13:34:00,75.4,50.0,29.99,South,182,4.0,4.0,41,0.00,,,0.00,WeatherCatV1.21B27,2013-10-26 20:34:00,
2013-10-26 13:39:00,75.9,49.8,29.98,South,173,2.0,3.0,40,0.00,,,0.00,WeatherCatV1.21B27,2013-10-26 20:39:00,
2013-10-26 13:44:00,76.1,49.3,29.98,SE,132,2.0,4.0,39,0.00,,,0.00,WeatherCatV1.21B27,2013-10-26 20:44:00,
2013-10-26 13:49:00,76.0,49.9,29.98,SSE,150,1.0,1.0,40,0.00,,,0.00,WeatherCatV1.21B27,2013-10-26 20:49:00,
2013-10-26 13:54:00,77.1,49.5,29.98,SSE,153,3.0,4.0,38,0.00,,,0.00,WeatherCatV1.21B27,2013-10-26 20:54:00,
2013-10-26 13:59:00,77.2,49.6,29.97,SSE,147,0.0,0.0,38,0.00,,,0.00,WeatherCatV1.21B27,2013-10-26 20:59:00,
2013-10-26 14:04:00,77.4,49.8,29.97,SE,136,0.0,4.0,38,0.00,,,0.00,WeatherCatV1.21B27,2013-10-26 21:04:00,
2013-10-26 14:09:00,77.1,50.9,29.97,SE,140,1.0,2.0,40,0.00,,,0.00,WeatherCatV1.21B27,2013-10-26 21:09:00,
2013-10-26 14:14:00,77.1,50.9,29.97,SSE,168,0.0,2.0,40,0.00,,,0.00,WeatherCatV1.21B27,2013-10-26 21:14:00,
2013-10-26 14:19:00,76.6,51.1,29.97,SSE,168,0.0,3.0,41,0.00,,,0.00,WeatherCatV1.21B27,2013-10-26 21:19:00,
2013-10-26 14:24:00,76.4,52.2,29.97,SSE,168,0.0,2.0,43,0.00,,,0.00,WeatherCatV1.21B27,2013-10-26 21:24:00,
2013-10-26 14:29:00,75.7,52.2,29.97,South,170,1.0,4.0,44,0.00,,,0.00,WeatherCatV1.21B27,2013-10-26 21:29:00,
2013-10-26 14:34:00,75.1,51.7,29.97,South,176,3.0,4.0,44,0.00,,,0.00,WeatherCatV1.21B27,2013-10-26 21:34:00,
2013-10-26 14:39:00,75.2,52.4,29.97,South,180,4.0,4.0,45,0.00,,,0.00,WeatherCatV1.21B27,2013-10-26 21:39:00,
2013-10-26 14:44:00,74.6,52.4,29.97,SSE,161,2.0,4.0,46,0.00,,,0.00,WeatherCatV1.21B27,2013-10-26 21:44:00,
2013-10-26 14:49:00,74.1,52.0,29.96,South,181,4.0,4.0,46,0.00,,,0.00,WeatherCatV1.21B27,2013-10-26 21:49:00,
2013-10-26 14:54:00,74.1,52.6,29.96,South,170,1.0,4.0,47,0.00,,,0.00,WeatherCatV1.21B27,2013-10-26 21:54:00,
2013-10-26 14:59:00,73.7,51.6,29.96,South,175,2.0,4.0,46,0.00,,,0.00,WeatherCatV1.21B27,2013-10-26 21:59:00,
2013-10-26 15:04:00,73.3,52.4,29.96,SSE,160,2.0,3.0,48,0.00,,,0.00,WeatherCatV1.21B27,2013-10-26 22:04:00,
2013-10-26 15:09:00,73.2,52.3,29.96,SSE,153,1.0,3.0,48,0.00,,,0.00,WeatherCatV1.21B27,2013-10-26 22:09:00,
2013-10-26 15:14:00,73.1,52.2,29.96,SSE,148,0.0,2.0,48,0.00,,,0.00,WeatherCatV1.21B27,2013-10-26 22:14:00,
2013-10-26 15:24:00,72.9,52.0,29.96,SSE,167,2.0,3.0,48,0.00,,,0.00,WeatherCatV1.21B27,2013-10-26 22:24:00,
2013-10-26 15:29:00,72.7,52.4,29.96,SSE,150,1.0,3.0,49,0.00,,,0.00,WeatherCatV1.21B27,2013-10-26 22:29:00,
2013-10-26 15:34:00,73.1,52.8,29.95,SE,128,0.0,4.0,49,0.00,,,0.00,WeatherCatV1.21B27,2013-10-26 22:34:00,
2013-10-26 15:39:00,73.1,52.8,29.95,SE,142,0.0,4.0,49,0.00,,,0.00,WeatherCatV1.21B27,2013-10-26 22:39:00,
2013-10-26 15:44:00,73.1,52.8,29.95,ESE,113,3.0,6.0,49,0.00,,,0.00,WeatherCatV1.21B27,2013-10-26 22:44:00,
2013-10-26 15:49:00,72.3,52.0,29.95,ESE,116,1.0,6.0,49,0.00,,,0.00,WeatherCatV1.21B27,2013-10-26 22:49:00,
2013-10-26 15:54:00,72.0,51.8,29.95,SSE,147,2.0,5.0,49,0.00,,,0.00,WeatherCatV1.21B27,2013-10-26 22:54:00,
2013-10-26 15:59:00,71.6,50.9,29.96,SSE,153,1.0,5.0,48,0.00,,,0.00,WeatherCatV1.21B27,2013-10-26 22:59:00,
2013-10-26 16:04:00,70.5,49.8,29.95,SSE,165,3.0,5.0,48,0.00,,,0.00,WeatherCatV1.21B27,2013-10-26 23:04:00,
2013-10-26 16:09:00,69.6,49.0,29.95,SSE,152,1.0,7.0,48,0.00,,,0.00,WeatherCatV1.21B27,2013-10-26 23:09:00,
2013-10-26 16:14:00,69.3,49.3,29.96,SSE,151,2.0,6.0,49,0.00,,,0.00,WeatherCatV1.21B27,2013-10-26 23:14:00,
2013-10-26 16:19:00,69.2,49.2,29.96,ESE,117,3.0,6.0,49,0.00,,,0.00,WeatherCatV1.21B27,2013-10-26 23:19:00,
2013-10-26 16:24:00,68.9,49.5,29.95,ESE,103,3.0,7.0,50,0.00,,,0.00,WeatherCatV1.21B27,2013-10-26 23:24:00,
2013-10-26 16:29:00,68.7,49.3,29.95,SSE,160,3.0,4.0,50,0.00,,,0.00,WeatherCatV1.21B27,2013-10-26 23:29:00,
2013-10-26 16:34:00,68.0,49.2,29.95,SE,143,4.0,4.0,51,0.00,,,0.00,WeatherCatV1.21B27,2013-10-26 23:34:00,
2013-10-26 16:39:00,67.7,49.9,29.95,SE,146,2.0,3.0,53,0.00,,,0.00,WeatherCatV1.21B27,2013-10-26 23:39:00,
2013-10-26 16:44:00,67.6,50.3,29.95,South,172,4.0,4.0,54,0.00,,,0.00,WeatherCatV1.21B27,2013-10-26 23:44:00,
2013-10-26 16:49:00,67.4,49.7,29.95,SSE,148,1.0,5.0,53,0.00,,,0.00,WeatherCatV1.21B27,2013-10-26 23:49:00,
2013-10-26 16:54:00,66.9,49.2,29.95,SE,131,2.0,5.0,53,0.00,,,0.00,WeatherCatV1.21B27,2013-10-26 23:54:00,
2013-10-26 17:04:00,66.8,48.6,29.95,SE,139,1.0,3.0,52,0.00,,,0.00,WeatherCatV1.21B27,2013-10-27 00:04:00,
2013-10-26 17:09:00,66.1,49.0,29.95,SE,146,2.0,4.0,54,0.00,,,0.00,WeatherCatV1.21B27,2013-10-27 00:09:00,
2013-10-26 17:14:00,65.7,48.6,29.95,SE,136,2.0,6.0,54,0.00,,,0.00,WeatherCatV1.21B27,2013-10-27 00:14:00,
2013-10-26 17:19:00,65.5,48.4,29.95,SE,138,2.0,5.0,54,0.00,,,0.00,WeatherCatV1.21B27,2013-10-27 00:19:00,
2013-10-26 17:24:00,64.8,48.2,29.95,SSE,155,3.0,4.0,55,0.00,,,0.00,WeatherCatV1.21B27,2013-10-27 00:24:00,
2013-10-26 17:29:00,63.3,48.3,29.95,SE,140,3.0,5.0,58,0.00,,,0.00,WeatherCatV1.21B27,2013-10-27 00:29:00,
2013-10-26 17:34:00,61.4,48.3,29.95,SE,140,4.0,4.0,62,0.00,,,0.00,WeatherCatV1.21B27,2013-10-27 00:34:00,
2013-10-26 17:39:00,60.1,47.9,29.95,SSE,161,2.0,2.0,64,0.00,,,0.00,WeatherCatV1.21B27,2013-10-27 00:39:00,
2013-10-26 17:44:00,59.9,46.0,29.95,SE,130,3.0,3.0,60,0.00,,,0.00,WeatherCatV1.21B27,2013-10-27 00:44:00,
2013-10-26 17:49:00,60.1,46.2,29.95,SE,130,2.0,4.0,60,0.00,,,0.00,WeatherCatV1.21B27,2013-10-27 00:49:00,
2013-10-26 17:54:00,59.6,47.0,29.95,SSE,152,1.0,4.0,63,0.00,,,0.00,WeatherCatV1.21B27,2013-10-27 00:54:00,
2013-10-26 17:59:00,58.7,47.8,29.95,SSE,152,0.0,0.0,67,0.00,,,0.00,WeatherCatV1.21B27,2013-10-27 00:59:00,
2013-10-26 18:04:00,57.9,46.6,29.95,SSE,158,0.0,0.0,66,0.00,,,0.00,WeatherCatV1.21B27,2013-10-27 01:04:00,
2013-10-26 18:14:00,57.1,41.5,29.95,SE,142,1.0,3.0,56,0.00,,,0.00,WeatherCatV1.21B27,2013-10-27 01:14:00,
2013-10-26 18:24:00,60.1,33.7,29.94,ESE,116,4.0,4.0,37,0.00,,,0.00,WeatherCatV1.21B27,2013-10-27 01:24:00,
2013-10-26 18:34:00,58.8,42.7,29.94,SSE,147,0.0,2.0,55,0.00,,,0.00,WeatherCatV1.21B27,2013-10-27 01:34:00,
2013-10-26 18:39:00,57.6,42.5,29.95,SE,145,1.0,1.0,57,0.00,,,0.00,WeatherCatV1.21B27,2013-10-27 01:39:00,
2013-10-26 18:44:00,57.6,41.1,29.95,SE,145,0.0,0.0,54,0.00,,,0.00,WeatherCatV1.21B27,2013-10-27 01:44:00,
2013-10-26 18:49:00,57.5,45.0,29.95,SE,146,0.0,0.0,63,0.00,,,0.00,WeatherCatV1.21B27,2013-10-27 01:49:00,
2013-10-26 18:54:00,57.3,40.3,29.95,SE,145,0.0,0.0,53,0.00,,,0.00,WeatherCatV1.21B27,2013-10-27 01:54:00,
2013-10-26 19:04:00,57.5,38.5,29.95,SSE,147,0.0,0.0,49,0.00,,,0.00,WeatherCatV1.21B27,2013-10-27 02:04:00,
2013-10-26 19:09:00,57.6,37.0,29.95,SE,146,0.0,0.0,46,0.00,,,0.00,WeatherCatV1.21B27,2013-10-27 02:09:00,
2013-10-26 19:14:00,57.8,36.6,29.95,SE,145,0.0,0.0,45,0.00,,,0.00,WeatherCatV1.21B27,2013-10-27 02:14:00,
2013-10-26 19:19:00,57.8,36.0,29.95,East,101,0.0,2.0,44,0.00,,,0.00,WeatherCatV1.21B27,2013-10-27 02:19:00,
2013-10-26 19:24:00,58.0,35.0,29.95,SE,142,0.0,0.0,42,0.00,,,0.00,WeatherCatV1.21B27,2013-10-27 02:24:00,
2013-10-26 19:34:00,58.8,34.5,29.95,ESE,119,0.0,3.0,40,0.00,,,0.00,WeatherCatV1.21B27,2013-10-27 02:34:00,
2013-10-26 19:39:00,58.6,40.0,29.95,ESE,118,0.0,0.0,50,0.00,,,0.00,WeatherCatV1.21B27,2013-10-27 02:39:00,
2013-10-26 19:44:00,58.3,40.8,29.95,ESE,117,0.0,0.0,52,0.00,,,0.00,WeatherCatV1.21B27,2013-10-27 02:44:00,
2013-10-26 19:54:00,57.6,39.6,29.95,South,181,0.0,2.0,51,0.00,,,0.00,WeatherCatV1.21B27,2013-10-27 02:54:00,
2013-10-26 19:59:00,57.7,39.7,29.95,SSE,148,1.0,1.0,51,0.00,,,0.00,WeatherCatV1.21B27,2013-10-27 02:59:00,
2013-10-26 20:04:00,58.0,39.0,29.95,SE,126,0.0,1.0,49,0.00,,,0.00,WeatherCatV1.21B27,2013-10-27 03:04:00,
2013-10-26 20:14:00,57.6,34.1,29.95,SE,140,0.0,2.0,41,0.00,,,0.00,WeatherCatV1.21B27,2013-10-27 03:14:00,
2013-10-26 20:24:00,57.6,32.8,29.95,SE,125,2.0,3.0,39,0.00,,,0.00,WeatherCatV1.21B27,2013-10-27 03:24:00,
2013-10-26 20:29:00,58.0,33.8,29.95,ESE,103,2.0,4.0,40,0.00,,,0.00,WeatherCatV1.21B27,2013-10-27 03:29:00,
2013-10-26 20:34:00,58.7,37.4,29.95,South,173,0.0,3.0,45,0.00,,,0.00,WeatherCatV1.21B27,2013-10-27 03:34:00,
2013-10-26 20:39:00,58.5,35.5,29.95,ESE,105,2.0,5.0,42,0.00,,,0.00,WeatherCatV1.21B27,2013-10-27 03:39:00,
2013-10-26 20:44:00,58.2,37.0,29.95,ESE,115,2.0,3.0,45,0.00,,,0.00,WeatherCatV1.21B27,2013-10-27 03:44:00,
2013-10-26 20:49:00,57.5,41.0,29.95,SSE,155,1.0,4.0,54,0.00,,,0.00,WeatherCatV1.21B27,2013-10-27 03:49:00,
2013-10-26 20:54:00,55.2,42.4,29.95,SSE,155,2.0,3.0,62,0.00,,,0.00,WeatherCatV1.21B27,2013-10-27 03:54:00,
2013-10-26 20:59:00,54.2,40.6,29.95,SE,136,1.0,1.0,60,0.00,,,0.00,WeatherCatV1.21B27,2013-10-27 03:59:00,
2013-10-26 21:04:00,54.8,40.3,29.95,SSE,152,1.0,2.0,58,0.00,,,0.00,WeatherCatV1.21B27,2013-10-27 04:04:00,
2013-10-26 21:09:00,54.1,41.4,29.94,SSE,150,1.0,2.0,62,0.00,,,0.00,WeatherCatV1.21B27,2013-10-27 04:09:00,
2013-10-26 21:14:00,53.9,40.8,29.95,South,173,3.0,3.0,61,0.00,,,0.00,WeatherCatV1.21B27,2013-10-27 04:14:00,
2013-10-26 21:19:00,54.1,41.4,29.95,South,172,0.0,3.0,62,0.00,,,0.00,WeatherCatV1.21B27,2013-10-27 04:19:00,
2013-10-26 21:24:00,53.9,41.6,29.95,SSE,168,2.0,3.0,63,0.00,,,0.00,WeatherCatV1.21B27,2013-10-27 04:24:00,
2013-10-26 21:29:00,53.6,41.3,29.95,SSE,164,3.0,3.0,63,0.00,,,0.00,WeatherCatV1.21B27,2013-10-27 04:29:00,
2013-10-26 21:34:00,53.9,41.2,29.95,SSE,160,2.0,3.0,62,0.00,,,0.00,WeatherCatV1.21B27,2013-10-27 04:34:00,
2013-10-26 21:39:00,54.2,40.6,29.95,SSE,154,1.0,2.0,60,0.00,,,0.00,WeatherCatV1.21B27,2013-10-27 04:39:00,
2013-10-26 21:44:00,53.9,40.8,29.95,SSE,154,0.0,1.0,61,0.00,,,0.00,WeatherCatV1.21B27,2013-10-27 04:44:00,
2013-10-26 21:54:00,53.3,40.2,29.95,SE,144,1.0,1.0,61,0.00,,,0.00,WeatherCatV1.21B27,2013-10-27 04:54:00,
2013-10-26 21:59:00,53.0,41.5,29.95,SE,132,2.0,2.0,65,0.00,,,0.00,WeatherCatV1.21B27,2013-10-27 04:59:00,
2013-10-26 22:04:00,52.2,42.0,29.94,SE,146,4.0,4.0,68,0.00,,,0.00,WeatherCatV1.21B27,2013-10-27 05:04:00,
2013-10-26 22:09:00,51.8,42.0,29.94,SE,136,2.0,3.0,69,0.00,,,0.00,WeatherCatV1.21B27,2013-10-27 05:09:00,
2013-10-26 22:14:00,51.8,40.8,29.94,SE,146,1.0,1.0,66,0.00,,,0.00,WeatherCatV1.21B27,2013-10-27 05:14:00,
2013-10-26 22:24:00,53.3,41.4,29.94,ESE,113,0.0,0.0,64,0.00,,,0.00,WeatherCatV1.21B27,2013-10-27 05:24:00,
2013-10-26 22:29:00,52.6,41.2,29.94,ESE,113,0.0,0.0,65,0.00,,,0.00,WeatherCatV1.21B27,2013-10-27 05:29:00,
2013-10-26 22:34:00,52.3,41.3,29.94,ESE,113,0.0,0.0,66,0.00,,,0.00,WeatherCatV1.21B27,2013-10-27 05:34:00,
2013-10-26 22:39:00,52.2,41.2,29.95,SE,132,0.0,0.0,66,0.00,,,0.00,WeatherCatV1.21B27,2013-10-27 05:39:00,
2013-10-26 22:44:00,52.1,41.1,29.94,SE,132,0.0,0.0,66,0.00,,,0.00,WeatherCatV1.21B27,2013-10-27 05:44:00,
2013-10-26 22:49:00,52.0,41.0,29.94,SE,132,0.0,0.0,66,0.00,,,0.00,WeatherCatV1.21B27,2013-10-27 05:49:00,
2013-10-26 22:54:00,52.1,40.7,29.94,SE,144,0.0,0.0,65,0.00,,,0.00,WeatherCatV1.21B27,2013-10-27 05:54:00,
2013-10-26 22:59:00,52.5,41.1,29.94,SE,144,0.0,0.0,65,0.00,,,0.00,WeatherCatV1.21B27,2013-10-27 05:59:00,
2013-10-26 23:04:00,52.8,40.6,29.94,SSE,167,0.0,1.0,63,0.00,,,0.00,WeatherCatV1.21B27,2013-10-27 06:04:00,
2013-10-26 23:14:00,54.4,40.8,29.94,South,169,3.0,4.0,60,0.00,,,0.00,WeatherCatV1.21B27,2013-10-27 06:14:00,
2013-10-26 23:19:00,54.5,41.3,29.94,SSE,160,2.0,4.0,61,0.00,,,0.00,WeatherCatV1.21B27,2013-10-27 06:19:00,
2013-10-26 23:24:00,53.9,41.2,29.94,SE,145,1.0,3.0,62,0.00,,,0.00,WeatherCatV1.21B27,2013-10-27 06:24:00,
2013-10-26 23:29:00,53.4,41.1,29.94,ESE,121,0.0,1.0,63,0.00,,,0.00,WeatherCatV1.21B27,2013-10-27 06:29:00,
2013-10-26 23:34:00,53.0,41.5,29.94,SE,140,2.0,3.0,65,0.00,,,0.00,WeatherCatV1.21B27,2013-10-27 06:34:00,
2013-10-26 23:39:00,53.8,41.1,29.93,SSE,165,1.0,3.0,62,0.00,,,0.00,WeatherCatV1.21B27,2013-10-27 06:39:00,
2013-10-26 23:44:00,54.5,39.6,29.93,SE,132,1.0,3.0,57,0.00,,,0.00,WeatherCatV1.21B27,2013-10-27 06:44:00,
2013-10-26 23:49:00,56.1,37.7,29.93,SE,143,1.0,1.0,50,0.00,,,0.00,WeatherCatV1.21B27,2013-10-27 06:49:00,
2013-10-26 23:54:00,56.3,36.3,29.93,SSE,147,2.0,2.0,47,0.00,,,0.00,WeatherCatV1.21B27,2013-10-27 06:54:00,
2013-10-26 23:59:00,57.5,35.8,29.93,SSE,156,1.0,2.0,44,0.00,,,0.00,WeatherCatV1.21B27,2013-10-27 06:59:00,